User: anonymous   Login
Location: Newark
(39.9500°N, 8.6833°E)
Time: 18:06:41
(UTC+00:00)
Language:

NO-84 - Orbit

View from above orbital plane
View from above orbital plane
View from above satellite
View from above satellite

Ground track
Ground track

The orbit data is extracted from the following two-line orbital elements,

1 40654U 15025D   21132.52653230  .00020029  00000-0  15542-3 0    92
2 40654  54.9829 211.0222 0081294 332.2920  27.3915 15.67494126  1411
Epoch (UTC): 12 May 2021 12:38:12
Eccentricity: 0.0081294
inclination: 54.9829°
perigee height: 311 km
apogee height: 421 km
right ascension of ascending node: 211.0222°
argument of perigee: 332.2920°
revolutions per day: 15.67494126
mean anomaly at epoch: 27.3915°
orbit number at epoch: 141

The dashed part of the orbit path shows where the satellite is in the earth's shadow,  

DLR